Location: Perugia
(43.1330°N, 12.3670°E)
Time: 06:47:03
(UTC+01:00)

ISS - Pass Details

Date: 24 January 2021
Orbit: 417 x 422 km, 51.6° (Epoch: 08 March)

Event Time Altitude Azimuth Distance (km) Brightness Sun altitude
Rises 18:44:27 0° 273° (W) 2,368 1.6 -16.7°
Reaches altitude 10° 18:46:48 10° 288° (WNW) 1,506 0.0 -17.2°
Maximum altitude 18:49:39 24° 345° (NNW) 910 -2.0 -17.7°
Enters shadow 18:50:30 22° 9° (N) 978 -2.1 -17.8°
